This demonstration page uses our WeatherBlox Daily Observations layout. Learn more.

Left ArrowRight Arrow

38.20091, -84.87328

Hourly Observations for August 1, 2021

Temp ( °F °C ) Dew Point ( °F °C ) Humidity (%) Winds ( mph kmh ) Pressure ( in mb ) Visibility ( mi km ) Precip ( " mm )
12:09 am 00:09 Partly Cloudy 68 20 64 17.8 87 87 Calm 29.93 1014 8 13 0.00 0.00
12:53 am 00:53 Mostly Cloudy 68 20 64 17.8 87 87 N 3 6 29.92 1013 9 14 0.00 0.00
1:53 am 01:53 Cloudy 68 20 64 17.8 87 87 Calm 29.93 1014 8 13 0.00 0.00
2:11 am 02:11 Cloudy 68 20 64 17.8 87 87 Calm 29.94 1014 8 13 0.00 0.00
2:53 am 02:53 Cloudy 67 19.4 64 17.8 91 91 Calm 29.93 1013 8 13 0.00 0.00
3:53 am 03:53 Cloudy 67 19.4 64 17.8 91 91 Calm 29.93 1013 7 11 0.00 0.00
4:53 am 04:53 Cloudy with Mist and Fog 67 19.4 63 17.2 87 87 NW 3 6 29.92 1013 6 10 0.00 0.00
5:53 am 05:53 Cloudy 66 18.9 62 16.7 87 87 NW 3 6 29.92 1013 7 11 0.00 0.00
6:53 am 06:53 Mostly Cloudy with Mist and Fog 65 18.3 62 16.7 90 90 Calm 29.93 1014 5 8 0.00 0.00
7:53 am 07:53 Sunny with Mist and Fog 65 18.3 61 16.1 87 87 NW 3 6 29.96 1015 6 10 0.00 0.00
8:53 am 08:53 Sunny 67 19.4 60 15.6 79 79 NW 7 11 29.98 1015 7 11 0.00 0.00
9:53 am 09:53 Sunny 72 22.2 62 16.7 71 71 Calm 29.97 1015 10 16 0.00 0.00
10:53 am 10:53 Partly Cloudy 74 23.3 62 16.7 67 67 W 5 7 29.98 1015 10 16 0.00 0.00
11:53 am 11:53 Partly Cloudy 76 24.4 61 16.1 60 60 VRB 7 11 29.98 1015 10 16 0.00 0.00
12:53 pm 12:53 Mostly Sunny 79 26.1 60 15.6 52 52 VRB 7 11 29.97 1015 10 16 0.00 0.00
1:53 pm 13:53 Partly Cloudy 80 26.7 58 14.4 47 47 NW 9 15 29.96 1015 10 16 0.00 0.00
2:53 pm 14:53 Cloudy 82 27.8 60 15.6 47 47 WNW 8 13 29.96 1015 10 16 0.00 0.00
3:53 pm 15:53 Mostly Sunny 82 27.8 61 16.1 49 49 WNW 8 13 29.96 1015 10 16 0.00 0.00
4:53 pm 16:53 Mostly Sunny 82 27.8 61 16.1 49 49 NW 10 17 29.95 1014 10 16 0.00 0.00
5:53 pm 17:53 Partly Cloudy 81 27.2 62 16.7 53 53 WNW 7 11 29.95 1014 10 16 0.00 0.00
6:53 pm 18:53 Mostly Cloudy 80 26.7 64 17.8 58 58 WNW 7 11 29.95 1014 8 13 0.00 0.00
7:53 pm 19:53 Sunny 78 25.6 65 18.3 64 64 NW 5 7 29.96 1014 7 11 0.00 0.00
8:53 pm 20:53 Cloudy 74 23.3 62 16.7 67 67 N 6 9 29.99 1016 9 14 0.00 0.00
9:53 pm 21:53 Cloudy 70 21.1 66 18.9 87 87 Calm 30.00 1016 8 13 0.00 0.00
10:53 pm 22:53 Mostly Cloudy 68 20 65 18.3 90 90 Calm 30.03 1017 7 11 0.00 0.00
11:53 pm 23:53 Mostly Cloudy 68 20 64 17.8 87 87 NNW 3 6 30.04 1017 7 11 0.00 0.00

Powered by AerisWeather